#timestamp,LO_Frequency,Hit,StdDev 
1588410015.5,286046998.3,N
1588410035.3,286046998.6,N
1588410055.2,286047001.4,N
1588410075.9,286047004.3,N
1588410095.7,286047002.0,N
1588410115.6,286047001.3,N
1588410135.4,286047005.1,N
1588410155.2,286047003.8,N
1588410175.1,286047003.6,N
1588410176.0,286047003.6,N
1588410195.8,286047004.0,N
1588410215.7,286047004.0,N
1588410235.5,286047003.3,N
1588410255.3,286047004.2,N
1588410275.2,286047007.5,Y
1588410295.0,286047004.1,P
1588410295.9,286047004.1,P
1588410315.8,286047006.0,P
1588410335.6,286047003.9,Y
1588410355.4,286046999.4,P
1588410375.3,286046998.7,N
1588410395.1,286046996.7,N
1588410415.9,286046997.3,N
1588410435.7,286046996.5,N
1588410455.5,286046999.1,N
1588410475.4,286046996.8,N
1588410495.2,286046997.4,N
1588410515.0,286046995.5,N
1588410515.9,286046995.5,N
1588410535.8,286046997.9,N
1588410555.6,286046995.5,N
1588410575.5,286046994.0,N
1588410595.3,286046992.2,Y
1588410615.1,286046996.1,P
1588410635.9,286046996.1,P
1588410655.7,286046996.4,P
1588410675.6,286046997.8,Y
1588410695.4,286046999.4,P
1588410715.2,286046999.2,N
1588410735.1,286046998.5,N
1588410736.0,286046998.5,N
1588410755.8,286047001.0,N
1588410775.7,286046998.2,N
1588410795.5,286046998.3,N
1588410815.3,286047001.0,N
1588410835.2,286047002.0,N
1588410855.0,286047000.1,N
1588410855.9,286047000.1,N
1588410875.7,286047000.6,N
1588410895.6,286047000.0,N
1588410915.4,286046998.7,N
1588410935.3,286046999.0,N
1588410955.1,286046999.0,N
1588410975.8,286046999.1,N
1588410995.7,286046996.7,N
1588411015.5,286046995.5,Y
1588411035.4,286046993.4,P
1588411055.2,286046996.3,N
1588411075.0,286046996.7,N
1588411075.9,286046996.7,N
1588411095.8,286046999.0,N
1588411115.6,286047000.5,N
1588411135.4,286047001.0,N
1588411155.3,286046998.5,N
1588411175.1,286046998.3,N
1588411195.9,286046999.3,N
1588411215.7,286046997.2,N
1588411235.5,286046999.2,N
1588411255.4,286047000.7,N
1588411275.2,286047002.8,N
1588411295.1,286047004.2,N
1588411296.0,286047004.2,N
1588411315.8,286047001.3,N
1588411335.6,286047000.1,N
1588411355.5,286046999.9,N
1588411375.3,286046999.8,N
1588411395.1,286047002.0,N
1588411415.9,286047002.7,N
1588411435.7,286047001.4,N
1588411455.6,286047003.5,N
1588411475.4,286047001.3,N
1588411495.2,286047001.8,N
1588411515.1,286047003.7,N
1588411516.0,286047003.7,N
1588411535.8,286047002.2,N
1588411555.7,286046998.5,N
1588411575.5,286046998.4,N
1588411595.3,286046999.1,N
1588411615.2,286047000.9,N
1588411635.0,286046998.2,N
1588411635.9,286046998.2,N
1588411655.8,286046999.2,N
1588411675.6,286046998.8,N
1588411695.4,286046998.8,N
1588411715.3,286047000.2,N
1588411735.1,286046999.8,N
1588411755.8,286046998.8,N
1588411775.7,286046998.2,N
1588411795.5,286047001.7,N
1588411815.4,286047004.0,N
1588411835.2,286047004.1,N
1588411855.0,286047003.7,N
1588411855.9,286047003.7,N
1588411875.8,286047006.0,N
1588411895.6,286047003.2,N
1588411915.5,286047002.4,N
1588411935.3,286047002.1,N
1588411955.1,286047002.8,N
1588411975.9,286046999.9,N
1588411995.7,286047000.5,N
1588412015.5,286046998.6,N
1588412035.4,286046999.2,N
1588412055.2,286046998.1,N
1588412075.1,286046998.4,N
1588412076.0,286046998.4,N
1588412095.8,286047002.6,N
1588412115.6,286046999.7,N
1588412135.5,286047000.9,N
1588412155.3,286046996.5,N
1588412175.1,286046997.9,N
1588412195.9,286046997.1,N
1588412215.7,286046997.5,N
1588412235.6,286046995.3,N
1588412255.4,286046996.7,N
1588412275.2,286046996.8,N
1588412295.1,286046998.4,N
1588412296.0,286046998.4,N
1588412315.8,286047000.6,N
1588412335.7,286047002.6,N
1588412355.5,286047002.2,N
1588412375.3,286046998.3,N
1588412395.2,286046999.9,N
1588412415.0,286047002.8,N
1588412415.9,286047002.8,N
1588412435.8,286047004.2,N
1588412455.6,286047001.3,N
1588412475.4,286046999.8,N
1588412495.3,286047001.5,N
1588412515.1,286047001.8,N
1588412535.8,286047001.7,N
1588412555.7,286047004.1,N
1588412575.5,286047003.3,N
1588412595.4,286047004.3,N
1588412615.2,286047002.1,N
1588412635.0,286047001.8,N
1588412635.9,286047001.8,N
1588412655.8,286046999.7,N
1588412675.6,286047002.2,N
1588412695.5,286047002.5,N
1588412715.3,286047001.5,N
1588412735.1,286047002.9,N
1588412755.9,286047002.9,N
1588412775.7,286047002.7,N
1588412795.6,286046999.9,N
1588412815.4,286047002.1,N
1588412835.2,286047001.3,N
1588412855.1,286047005.9,Y
1588412856.0,286047005.9,P
1588412875.8,286047001.9,N
1588412895.6,286046999.8,N
1588412915.5,286047000.9,N
1588412935.3,286046996.7,N
1588412955.2,286046996.6,N
1588412975.9,286046997.4,N
1588412995.7,286046998.8,N
1588413015.6,286047001.2,N
1588413035.4,286047001.1,N
1588413055.3,286046998.9,N
1588413075.1,286046999.4,N
1588413076.0,286046999.4,N
1588413095.8,286046998.4,N
1588413115.7,286047001.2,N
1588413135.5,286047002.7,N
1588413155.3,286047000.1,N
1588413175.2,286046999.3,N
1588413195.0,286047005.5,N
1588413195.9,286047005.5,N
1588413215.8,286047004.6,N
1588413235.6,286047003.0,N
1588413255.4,286047004.2,N
1588413275.3,286047005.9,N
1588413295.1,286047004.9,N
1588413315.9,286047004.7,N
1588413335.7,286047005.2,N
1588413355.5,286047004.6,N
1588413375.4,286047003.3,N
1588413395.2,286047002.6,N
1588413415.1,286047001.9,N
1588413416.0,286047001.9,N
1588413435.8,286047002.3,N
1588413455.6,286047004.3,N
1588413475.5,286047002.2,N
1588413495.3,286047001.9,N
1588413515.1,286047000.6,N
1588413535.9,286046998.5,N
1588413555.7,286047001.0,N
1588413575.6,286047000.6,N
1588413595.4,286047000.1,N
